Location: Newark
(41.6500°N, 71.4833°W)
Time: 02:34:07
(UTC+00:00)

Transit 2A Rocket - Pass Details

Date: 28 January 2020
Orbit: 591 x 912 km, 66.7° (Epoch: 25 February)

Event Time Altitude Azimuth Distance (km) Brightness Sun altitude
Rises 19:04:44 0° 318° (NW) 3,074 8.0 23.5°
Reaches altitude 10° 19:07:15 10° 306° (NW) 2,206 7.4 23.2°
Maximum altitude 19:11:28 27° 249° (WSW) 1,419 7.6 22.8°
Drops below altitude 10° 19:16:00 10° 193° (SSW) 2,374 9.0 22.3°
Sets 19:18:50 0° 182° (S) 3,356 9.2 22.0°
